Regional Weather Roundup
Issued by NWS Kansas City/Pleasant Hill, MO

Home | Current Version | Previous Version | Graphics & Text | Print | Product List | Glossary Off
Versions: 1 2 3 4 5 6 7 8 9 10 11 12 13 14 15 16 17 18 19 20 21 22 23 24 25 26 27 28 29 30 31 32 33 34 35 36 37 38 39 40 41 42 43 44 45 46 47 48 49 50

189
ASUS43 KEAX 060310
RWREAX

WEATHER ROUNDUP FOR EASTERN KANSAS AND NORTHWEST MISSOURI
NATIONAL WEATHER SERVICE KANSAS CITY/PLEASANT HILL MO
900 PM CST FRI FEB 05 2016

KSZ040-057-103>105-MOZ028-029-037-043-060400-
...KANSAS CITY METROPOLITAN AREA...

CITY           SKY/WX    TMP DP  RH WIND       PRES   REMARKS
K.C. INTL      CLOUDY    35  25  66 E3        30.27S
K.C. DOWNTOWN  CLOUDY    38  25  59 CALM      30.28S
LEES SUMMIT    CLOUDY    37  24  59 SE6       30.28S WCI  32
OLATHE - IXD   CLOUDY    33  25  72 SE3       30.28S
OLATHE - OJC   CLOUDY    36  24  62 SE3       30.27S
LAWRENCE       CLOUDY    30  24  78 CALM      30.28S

$$

MOZ001>008-011>017-020>025-030>033-038>040-044>046-053-054-060400-
...NORTHERN AND CENTRAL MISSOURI...

CITY           SKY/WX    TMP DP  RH WIND       PRES   REMARKS
ST. JOSEPH     CLOUDY    35  23  61 CALM      30.28S
MOSBY          CLOUDY    34  27  75 CALM      30.29S
WARRENSBURG    CLOUDY    36  23  60 E3        30.29S
WHITEMAN AFB   MOCLDY    35  24  62 E3        30.28R
CLINTON          N/A     34  28  80 SE5       30.30S WCI  30
SEDALIA        CLOUDY    36  21  54 SE5       30.30S WCI  32
WARSAW         NOT AVBL
CHILLICOTHE      N/A     33  23  66 CALM      30.31S
KIRKSVILLE     CLOUDY    31  22  69 S5        30.30F WCI  26

$$

MOZ041-047>049-056>058-063>065-088>090-097-060400-
...EASTERN AND SOUTHERN MISSOURI...

CITY           SKY/WX    TMP DP  RH WIND       PRES   REMARKS
ST. LOUIS INTL PTCLDY    32  17  54 E5        30.35S WCI  27
SPIRIT OF STL  CLEAR     26  21  81 CALM      30.34S
COLUMBIA       CLOUDY    33  18  53 E6        30.30F WCI  28
JEFFERSON CITY CLOUDY    31  20  63 CALM      30.33S
ROLLA          CLOUDY    35  19  52 SE8       30.29S WCI  29
OSAGE BEACH    PTCLDY    36  18  48 CALM      30.30S
SPRINGFIELD    CLEAR     32  19  58 S5        30.29S WCI  27
BRANSON        PTCLDY    39  12  33 CALM      30.32R
JOPLIN         PTCLDY    41  20  43 S8        30.29F
WEST PLAINS    PTCLDY    34  16  47 CALM      30.31S

$$

IAZ060-094-KSZ022-034>040-054-083-096-NEZ052-066-093-060400-
...KANSAS...SOUTHEAST NEBRASKA AND IOWA...

CITY           SKY/WX    TMP DP  RH WIND       PRES   REMARKS
TOPEKA         CLOUDY    33  25  72 CALM      30.27S
MANHATTAN      MOCLDY    35  23  61 W6        30.28R WCI  30
EMPORIA        CLOUDY    35  23  61 W5        30.25S WCI  31
CHANUTE        PTCLDY    40  24  53 SE7       30.26S
WICHITA        PTCLDY    37  24  59 NW8       30.27R WCI  31
OMAHA          CLOUDY    29  28  96 SE6       30.24S FOG     WCI  23
LINCOLN        CLOUDY    30  27  88 CALM      30.25S
FALLS CITY     CLOUDY    34  26  72 CALM      30.26S
LAMONI         CLOUDY    30  26  85 S7        30.26F WCI  23
DES MOINES     FLURRIES  30  24  78 S9        30.27F WCI  22

$$





USA.gov is the U.S. government's official web portal to all federal, state and local government web resources and services.